User: anonymous   Login
Location: Eaton
(41.3139°N, 82.0207°W)
Time: 12:26:36
(UTC+00:00)
Language:

SPOT 3 Rocket - Orbit

View from above orbital plane
View from above orbital plane
View from above satellite
View from above satellite

Ground track
Ground track

The orbit data is extracted from the following two-line orbital elements,

1 22830U 93061H   21265.67900399  .00000000  00000-0  16874-4 0  9993
2 22830  98.7042 323.5191 0011699  50.8819 309.3402 14.31490903460957
Epoch (UTC): 22 September 2021 16:17:45
Eccentricity: 0.0011699
inclination: 98.7042°
perigee height: 778 km
apogee height: 795 km
right ascension of ascending node: 323.5191°
argument of perigee: 50.8819°
revolutions per day: 14.31490903
mean anomaly at epoch: 309.3402°
orbit number at epoch: 46095

The dashed part of the orbit path shows where the satellite is in the earth's shadow,  

DLR